{"data":{"norad_id":65419,"intl_designator":"2025-192R","name":"STARLINK-35085","alt_names":[],"object_type":"PAYLOAD","status":"ACTIVE","operator":null,"country":"US","launch_date":"2025-08-31","launch_site_code":"AFETR","launch_vehicle":null,"mission":null,"orbit_class":"UNKNOWN","rcs_meters":null,"size_class":null,"mass_kg":null,"dimensions":null,"purposes":["comms"],"wikipedia_slug":null,"has_3d_model":false,"image_url":null,"decayed_at":null,"tle_current":{"epoch":"2026-05-25T05:28:56.543808Z","epoch_age_seconds":52148,"freshness":"FRESH","line1":"1 65419U 25192R   26145.22843222  .00019254  00000+0  63022-3 0  9993","line2":"2 65419  53.1593 236.0624 0001379  89.8213 270.2946 15.31719814 41114","mean_motion":15.31719814,"eccentricity":0.0001379,"inclination_deg":53.1593,"raan_deg":236.0624,"arg_perigee_deg":89.8213,"mean_anomaly_deg":270.2946,"bstar":0.00063022,"rev_number":4111,"period_min":94.011971826592,"perigee_km":469.73647936665,"apogee_km":471.62538335212,"semimajor_km":6848.8179313594,"source":"CELESTRAK","updated_at":"2026-05-25T13:38:20.802462Z"}}}